| time (UTC) | temp F | wind direction | speed MPH | gust MPH | rain 1hr in | rain 24hr in | rain mn in | humidity % | barometer mb |
| 20260503214048 | 64 | 345 | 3.0 | 7.0 | 0.00 | 0.00 | 0.00 | 22 | 1014.2 |
| 20260503213047 | 63 | 314 | 4.0 | 9.0 | 0.00 | 0.00 | 0.00 | 23 | 1014.1 |
| 20260503212047 | 66 | 196 | 4.0 | 10.0 | 0.00 | 0.00 | 0.00 | 21 | 1014.2 |
| 20260503211047 | 65 | 235 | 3.0 | 10.0 | 0.00 | 0.00 | 0.00 | 22 | 1014.2 |
| 20260503210047 | 64 | 316 | 4.0 | 10.0 | 0.00 | 0.00 | 0.00 | 23 | 1014.3 |
| 20260503205048 | 64 | 284 | 2.0 | 8.0 | 0.00 | 0.00 | 0.00 | 24 | 1014.4 |
| 20260503204047 | 62 | 300 | 4.0 | 8.0 | 0.00 | 0.00 | 0.00 | 22 | 1014.5 |
| 20260503203047 | 65 | 18 | 1.0 | 9.0 | 0.00 | 0.00 | 0.00 | 22 | 1014.5 |
| 20260503202047 | 63 | 268 | 4.0 | 7.0 | 0.00 | 0.00 | 0.00 | 22 | 1014.7 |
| 20260503201050 | 64 | 194 | 5.0 | 9.0 | 0.00 | 0.00 | 0.00 | 23 | 1014.8 |
| 20260503200047 | 64 | 278 | 4.0 | 6.0 | 0.00 | 0.00 | 0.00 | 26 | 1014.9 |
| 20260503195047 | 61 | 52 | 4.0 | 10.0 | 0.00 | 0.00 | 0.00 | 25 | 1015.1 |
| 20260503194048 | 61 | 286 | 4.0 | 9.0 | 0.00 | 0.00 | 0.00 | 24 | 1015.3 |
| 20260503193047 | 61 | 303 | 5.0 | 7.0 | 0.00 | 0.00 | 0.00 | 24 | 1015.3 |
| 20260503192047 | 61 | 288 | 2.0 | 9.0 | 0.00 | 0.00 | 0.00 | 26 | 1015.2 |
| 20260503191048 | 62 | 227 | 3.0 | 14.0 | 0.00 | 0.00 | 0.00 | 25 | 1015.6 |
| 20260503190048 | 60 | 290 | 4.0 | 11.0 | 0.00 | 0.00 | 0.00 | 25 | 1015.7 |
| 20260503185047 | 60 | 299 | 4.0 | 9.0 | 0.00 | 0.00 | 0.00 | 30 | 1015.9 |
| 20260503184046 | 60 | 287 | 4.0 | 9.0 | 0.00 | 0.00 | 0.00 | 30 | 1016.1 |
| 20260503183048 | 60 | 195 | 3.0 | 10.0 | 0.00 | 0.00 | 0.00 | 28 | 1016.1 |
| 20260503182047 | 58 | 299 | 5.0 | 11.0 | 0.00 | 0.00 | 0.00 | 29 | 1016.3 |
| 20260503181049 | 0 | 0.0 | 0.0 | 0.00 | 0.00 | 0.00 | 1016.3 | ||
| 20260503180048 | 0 | 0.0 | 0.0 | 0.00 | 0.00 | 0.00 | 1016.4 | ||
| 20260503175049 | 0 | 0.0 | 0.0 | 0.00 | 0.00 | 0.00 | 1016.3 | ||
| 20260503174049 | 0 | 0.0 | 0.0 | 0.00 | 0.00 | 0.00 | 1016.4 | ||
| 20260503173048 | 0 | 0.0 | 0.0 | 0.00 | 0.00 | 0.00 | 1016.5 | ||
| 20260503172047 | 0 | 0.0 | 0.0 | 0.00 | 0.00 | 0.00 | 1016.7 | ||
| 20260503171047 | 0 | 0.0 | 0.0 | 0.00 | 0.00 | 0.00 | 1016.8 | ||
| 20260503131048 | 46 | 306 | 2.0 | 6.0 | 0.00 | 0.00 | 0.00 | 45 | 1017.9 |
| 20260503081049 | 41 | 17 | 1.0 | 5.0 | 0.00 | 0.00 | 0.00 | 68 | 1015.2 |
| 20260503072048 | 42 | 344 | 2.0 | 4.0 | 0.00 | 0.00 | 0.00 | 67 | 1014.8 |
| 20260503071048 | 42 | 12 | 1.0 | 4.0 | 0.00 | 0.00 | 0.00 | 68 | 1014.7 |
| 20260503055047 | 42 | 324 | 2.0 | 4.0 | 0.00 | 0.00 | 0.00 | 70 | 1014.6 |
| 20260503054048 | 41 | 305 | 1.0 | 3.0 | 0.00 | 0.00 | 0.00 | 71 | 1014.7 |
| 20260503053047 | 41 | 300 | 1.0 | 4.0 | 0.00 | 0.00 | 0.00 | 71 | 1014.6 |
| 20260503052047 | 42 | 290 | 1.0 | 3.0 | 0.00 | 0.00 | 0.00 | 69 | 1014.5 |
| 20260503051050 | 41 | 180 | 0.0 | 2.0 | 0.00 | 0.00 | 0.00 | 70 | 1014.6 |
| 20260503050052 | 40 | 180 | 0.0 | 1.0 | 0.00 | 0.00 | 0.00 | 69 | 1014.6 |
| 20260503045047 | 41 | 305 | 1.0 | 2.0 | 0.00 | 0.00 | 0.00 | 68 | 1014.6 |
| 20260503044048 | 42 | 309 | 2.0 | 4.0 | 0.00 | 0.00 | 0.00 | 66 | 1014.7 |
| 20260503043047 | 42 | 11 | 2.0 | 4.0 | 0.00 | 0.00 | 0.00 | 64 | 1014.7 |
| 20260503042050 | 42 | 3 | 1.0 | 4.0 | 0.00 | 0.00 | 0.00 | 64 | 1014.7 |
| 20260503041047 | 43 | 23 | 2.0 | 7.0 | 0.00 | 0.00 | 0.00 | 62 | 1014.6 |
| 20260503040049 | 44 | 32 | 3.0 | 5.0 | 0.00 | 0.00 | 0.00 | 60 | 1014.7 |
| 20260503035048 | 44 | 30 | 3.0 | 7.0 | 0.00 | 0.00 | 0.00 | 59 | 1014.6 |
| 20260503034048 | 45 | 12 | 2.0 | 6.0 | 0.00 | 0.00 | 0.00 | 57 | 1014.6 |
| 20260503033047 | 46 | 17 | 3.0 | 7.0 | 0.00 | 0.00 | 0.00 | 55 | 1014.5 |
| 20260503032047 | 46 | 307 | 2.0 | 7.0 | 0.00 | 0.00 | 0.00 | 53 | 1014.4 |
| 20260503031047 | 47 | 351 | 1.0 | 4.0 | 0.00 | 0.00 | 0.00 | 49 | 1014.3 |
| 20260503030047 | 47 | 304 | 2.0 | 6.0 | 0.00 | 0.00 | 0.00 | 47 | 1014.4 |
| 20260503025047 | 48 | 301 | 3.0 | 6.0 | 0.00 | 0.00 | 0.00 | 46 | 1014.3 |
| 20260503024047 | 48 | 301 | 2.0 | 4.0 | 0.00 | 0.00 | 0.00 | 45 | 1014.3 |
| 20260503023048 | 48 | 326 | 1.0 | 6.0 | 0.00 | 0.00 | 0.00 | 44 | 1014.3 |
| 20260503022047 | 48 | 305 | 0.0 | 2.0 | 0.00 | 0.00 | 0.00 | 45 | 1014.2 |
| 20260503021049 | 49 | 301 | 2.0 | 5.0 | 0.00 | 0.00 | 0.00 | 42 | 1014.2 |
| 20260503020050 | 49 | 312 | 4.0 | 9.0 | 0.00 | 0.00 | 0.00 | 41 | 1014.1 |
| 20260503015049 | 49 | 306 | 1.0 | 3.0 | 0.00 | 0.00 | 0.00 | 43 | 1014.2 |
| 20260503014048 | 49 | 297 | 1.0 | 4.0 | 0.00 | 0.00 | 0.00 | 41 | 1014.1 |
| 20260503013051 | 50 | 307 | 2.0 | 10.0 | 0.00 | 0.00 | 0.00 | 40 | 1014.1 |
| 20260503012048 | 50 | 297 | 4.0 | 7.0 | 0.00 | 0.00 | 0.00 | 39 | 1014.0 |
| 20260503011048 | 50 | 297 | 2.0 | 7.0 | 0.00 | 0.00 | 0.00 | 38 | 1013.8 |
| 20260503010047 | 50 | 296 | 3.0 | 6.0 | 0.00 | 0.00 | 0.00 | 39 | 1013.7 |
| 20260503005047 | 50 | 298 | 3.0 | 6.0 | 0.00 | 0.00 | 0.00 | 38 | 1013.6 |
| 20260503004047 | 50 | 289 | 1.0 | 5.0 | 0.00 | 0.00 | 0.00 | 39 | 1013.4 |
| 20260503003047 | 50 | 307 | 4.0 | 8.0 | 0.00 | 0.00 | 0.00 | 37 | 1013.2 |
| 20260503002050 | 51 | 293 | 3.0 | 10.0 | 0.00 | 0.00 | 0.00 | 37 | 1013.1 |
| 20260503001047 | 51 | 297 | 3.0 | 9.0 | 0.00 | 0.00 | 0.00 | 38 | 1012.9 |
| 20260503000047 | 51 | 285 | 2.0 | 7.0 | 0.00 | 0.00 | 0.00 | 37 | 1012.8 |
| 20260502235048 | 51 | 288 | 5.0 | 9.0 | 0.00 | 0.00 | 0.00 | 37 | 1012.6 |
| 20260502234048 | 51 | 311 | 2.0 | 5.0 | 0.00 | 0.00 | 0.00 | 39 | 1012.6 |
| 20260502233048 | 51 | 308 | 3.0 | 13.0 | 0.00 | 0.00 | 0.00 | 36 | 1012.4 |
| 20260502232048 | 52 | 288 | 5.0 | 11.0 | 0.00 | 0.00 | 0.00 | 38 | 1012.3 |
| 20260502231050 | 52 | 326 | 3.0 | 8.0 | 0.00 | 0.00 | 0.00 | 38 | 1012.2 |
| 20260502230048 | 53 | 298 | 5.0 | 8.0 | 0.00 | 0.00 | 0.00 | 37 | 1012.1 |
| 20260502225048 | 53 | 294 | 3.0 | 7.0 | 0.00 | 0.00 | 0.00 | 39 | 1012.1 |
| 20260502224049 | 53 | 310 | 4.0 | 7.0 | 0.00 | 0.00 | 0.00 | 38 | 1012.0 |
| 20260502223047 | 53 | 302 | 2.0 | 4.0 | 0.00 | 0.00 | 0.00 | 38 | 1012.0 |
| 20260502222048 | 53 | 327 | 2.0 | 7.0 | 0.00 | 0.00 | 0.00 | 39 | 1012.0 |
| 20260502221048 | 53 | 331 | 1.0 | 4.0 | 0.00 | 0.00 | 0.00 | 39 | 1012.0 |
| 20260502220047 | 54 | 284 | 3.0 | 6.0 | 0.00 | 0.00 | 0.00 | 36 | 1011.9 |
| 20260502215049 | 54 | 295 | 3.0 | 7.0 | 0.00 | 0.00 | 0.00 | 38 | 1011.9 |